TimeCST,TemperatureF,Dew PointF,Humidity,Sea Level PressureIn,VisibilityMPH,Wind Direction,Wind SpeedMPH,Gust SpeedMPH,PrecipitationIn,Events,Conditions,WindDirDegrees,DateUTC
12:03 AM,25.0,21.0,85,29.82,0.5,ENE,12.7,-,0.00,Snow,Light Snow,60,2013-02-22 06:03:00
12:21 AM,25.0,21.0,85,29.81,0.5,ENE,12.7,-,0.03,Snow,Light Snow,60,2013-02-22 06:21:00
12:40 AM,25.0,21.9,88,29.81,0.5,ENE,11.5,-,0.04,Snow,Light Snow,60,2013-02-22 06:40:00
12:54 AM,25.0,21.9,88,29.84,0.5,ENE,10.4,-,0.05,Snow,Light Snow,60,2013-02-22 06:54:00
1:40 AM,25.0,21.9,88,29.80,0.5,ENE,8.1,-,0.02,Snow,Light Snow,70,2013-02-22 07:40:00
1:54 AM,25.0,21.9,88,29.83,0.5,ENE,10.4,-,0.02,Snow,Light Snow,60,2013-02-22 07:54:00
2:30 AM,25.0,21.0,85,29.79,0.5,East,10.4,-,0.01,Snow,Light Snow,80,2013-02-22 08:30:00
2:52 AM,24.8,21.2,86,29.78,4.0,East,8.1,-,0.01,Snow,Light Snow,90,2013-02-22 08:52:00
2:54 AM,25.0,21.0,85,29.81,4.0,East,9.2,-,0.01,Snow,Light Snow,80,2013-02-22 08:54:00
3:11 AM,25.0,21.0,85,29.77,2.5,East,6.9,-,0.01,Snow,Light Snow,80,2013-02-22 09:11:00
3:29 AM,25.0,21.0,85,29.76,2.5,ENE,6.9,-,0.01,Snow,Light Snow,60,2013-02-22 09:29:00
3:43 AM,25.0,21.0,85,29.76,1.8,ENE,5.8,-,0.01,Snow,Light Snow,60,2013-02-22 09:43:00
3:54 AM,24.1,21.0,88,29.80,1.8,ENE,5.8,-,0.02,Snow,Light Snow,60,2013-02-22 09:54:00
4:03 AM,24.1,21.0,88,29.76,2.0,ENE,5.8,-,0.00,Snow,Light Snow,60,2013-02-22 10:03:00
4:11 AM,24.1,21.0,88,29.76,1.5,ENE,4.6,-,0.00,Snow,Light Snow,70,2013-02-22 10:11:00
4:32 AM,24.1,21.0,88,29.76,2.0,NNE,4.6,-,0.00,Snow,Light Snow,30,2013-02-22 10:32:00
4:54 AM,24.1,21.0,88,29.80,2.5,Variable,3.5,-,0.00,Snow,Light Snow,0,2013-02-22 10:54:00
5:19 AM,23.0,19.9,88,29.77,3.0,North,3.5,-,0.00,Snow,Light Snow,360,2013-02-22 11:19:00
5:54 AM,23.0,19.9,88,29.82,4.0,NNW,4.6,-,0.01,Snow,Light Snow,330,2013-02-22 11:54:00
6:06 AM,23.0,19.9,88,29.78,4.0,NW,5.8,-,0.00,Snow,Light Snow,320,2013-02-22 12:06:00
6:54 AM,24.1,19.9,84,29.83,3.0,NW,5.8,-,0.00,Snow,Light Snow,320,2013-02-22 12:54:00
7:10 AM,24.1,21.0,88,29.79,3.0,NNW,5.8,-,0.00,Snow,Light Snow,330,2013-02-22 13:10:00
7:15 AM,24.1,19.9,84,29.79,1.5,NNW,5.8,-,0.00,Snow,Light Snow,330,2013-02-22 13:15:00
7:46 AM,23.0,19.9,88,29.80,1.2,NW,4.6,-,0.00,Snow,Light Snow,320,2013-02-22 13:46:00
7:54 AM,23.0,19.9,88,29.83,1.5,NNW,4.6,-,0.00,Snow,Light Snow,330,2013-02-22 13:54:00
8:09 AM,23.0,19.9,88,29.80,2.0,NW,4.6,-,0.00,Snow,Light Snow,320,2013-02-22 14:09:00
8:33 AM,24.1,19.9,84,29.80,3.0,NW,6.9,-,0.00,,Overcast,310,2013-02-22 14:33:00
8:54 AM,25.0,21.0,85,29.85,4.0,WNW,6.9,-,0.00,,Mostly Cloudy,300,2013-02-22 14:54:00
9:27 AM,26.1,21.0,81,29.84,6.0,WNW,8.1,-,N/A,,Haze,290,2013-02-22 15:27:00
9:54 AM,27.0,21.0,78,29.88,5.0,West,9.2,-,0.00,Snow,Light Snow,270,2013-02-22 15:54:00
10:04 AM,26.1,21.0,81,29.85,3.0,West,10.4,-,0.00,Snow,Light Snow,260,2013-02-22 16:04:00
10:15 AM,26.1,21.0,81,29.86,2.0,West,10.4,-,0.00,Snow,Light Snow,280,2013-02-22 16:15:00
10:28 AM,26.1,21.0,81,29.86,1.2,West,11.5,-,0.00,Snow,Light Snow,280,2013-02-22 16:28:00
10:46 AM,26.1,19.9,78,29.87,2.0,WNW,12.7,-,0.00,Snow,Light Snow,300,2013-02-22 16:46:00
10:54 AM,27.0,19.9,75,29.91,5.0,WNW,15.0,-,0.00,Snow,Light Snow,290,2013-02-22 16:54:00
11:23 AM,27.0,19.9,75,29.88,10.0,West,12.7,-,0.00,,Mostly Cloudy,280,2013-02-22 17:23:00
11:54 AM,26.1,19.9,78,29.92,10.0,WNW,16.1,-,0.00,,Scattered Clouds,300,2013-02-22 17:54:00
12:54 PM,27.0,19.0,72,29.93,10.0,West,13.8,-,N/A,,Scattered Clouds,280,2013-02-22 18:54:00
1:54 PM,27.0,18.0,69,29.94,10.0,West,19.6,-,N/A,,Partly Cloudy,280,2013-02-22 19:54:00
2:27 PM,27.0,18.0,69,29.91,10.0,WNW,18.4,-,N/A,,Mostly Cloudy,290,2013-02-22 20:27:00
2:54 PM,26.1,18.0,71,29.95,10.0,WNW,17.3,-,N/A,,Overcast,290,2013-02-22 20:54:00
3:54 PM,25.0,17.1,72,29.98,10.0,WNW,19.6,-,N/A,,Overcast,290,2013-02-22 21:54:00
4:54 PM,25.0,17.1,72,29.98,10.0,WNW,13.8,-,N/A,,Overcast,300,2013-02-22 22:54:00
5:54 PM,25.0,17.1,72,30.00,10.0,WNW,16.1,-,N/A,,Overcast,290,2013-02-22 23:54:00
6:54 PM,25.0,16.0,69,30.02,10.0,West,11.5,-,N/A,,Overcast,280,2013-02-23 00:54:00
7:54 PM,24.1,16.0,71,30.03,9.0,West,11.5,-,0.00,Snow,Light Snow,280,2013-02-23 01:54:00
8:54 PM,24.1,15.1,69,30.03,9.0,West,12.7,-,0.00,Snow,Light Snow,270,2013-02-23 02:54:00
9:54 PM,24.1,15.1,69,30.02,9.0,West,10.4,-,0.00,Snow,Light Snow,260,2013-02-23 03:54:00
10:54 PM,23.0,15.1,72,30.02,9.0,West,9.2,-,0.00,Snow,Light Snow,270,2013-02-23 04:54:00
11:54 PM,23.0,14.0,68,30.02,9.0,West,13.8,-,0.00,Snow,Light Snow,270,2013-02-23 05:54:00